This demonstration page uses our WeatherBlox Daily Observations layout. Learn more.

Hourly Observations for August 21, 2017

Temp ( °F °C ) Dew Point ( °F °C ) Humidity (%) Winds ( mph kmh ) Pressure ( in mb ) Visibility ( mi km ) Precip ( " mm )
12:15 am 00:15 Clear 74 23.6 66 19 75 75 S 7 11 29.85 1011 10 16.09344 0 0
12:35 am 00:35 Clear 76 24.2 65 18.6 71 71 S 7 11 29.85 1011 10 16.09344 0 0
12:55 am 00:55 Clear 74 23.1 66 18.8 77 77 SSW 6 9 29.85 1011 10 16.09344 0 0
1:15 am 01:15 Clear 73 23 66 18.8 77 77 SSW 8 13 29.85 1011 10 16.09344 0 0
1:35 am 01:35 Clear 73 23 65 18.5 76 76 SSW 7 11 29.85 1011 10 16.09344 0 0
1:55 am 01:55 Clear 73 22.7 65 18.2 76 76 SSW 5 7 29.88 1012 10 16.09344 0 0
2:15 am 02:15 Clear 72 22.1 65 18.3 79 79 S 7 11 29.88 1012 10 16.09344 0 0
2:35 am 02:35 Clear 71 21.5 65 18.4 83 83 SSW 5 7 29.88 1012 10 16.09344 0 0
2:55 am 02:55 Clear 70 21.2 65 18.2 83 83 SSW 3 6 29.88 1012 10 16.09344 0 0
3:15 am 03:15 Clear 71 21.4 64 18 81 81 SSW 5 7 29.85 1011 10 16.09344 0 0
3:35 am 03:35 Clear 70 21 64 18 83 83 S 5 7 29.85 1011 10 16.09344 0 0
3:55 am 03:55 Clear 70 21.1 64 17.7 81 81 SSW 7 11 29.85 1011 10 16.09344 0 0
4:15 am 04:15 Clear 71 21.4 64 17.6 79 79 SSW 7 11 29.85 1011 10 16.09344 0 0
4:35 am 04:35 Clear 70 21.1 64 17.5 80 80 SSW 6 9 29.85 1011 10 16.09344 0 0
4:55 am 04:55 Clear 69 20.7 64 17.5 82 82 SSW 6 9 29.85 1011 10 16.09344 0 0
5:15 am 05:15 Clear 70 21 64 17.5 81 81 SSW 8 13 29.85 1011 10 16.09344 0 0
5:35 am 05:35 Clear 70 21 64 17.6 81 81 SSW 7 11 29.85 1011 10 16.09344 0 0
5:55 am 05:55 Clear 70 21.1 64 17.7 81 81 SSW 7 11 29.85 1011 10 16.09344 0 0
6:15 am 06:15 Clear 69 20.8 64 17.7 83 83 S 7 11 29.88 1012 10 16.09344 0 0
6:35 am 06:35 Clear 69 20.8 64 17.8 83 83 S 6 9 29.88 1012 10 16.09344 0 0
6:55 am 06:55 Sunny 69 20.5 64 17.8 85 85 S 6 9 29.88 1012 10 16.09344 0 0
7:15 am 07:15 Sunny 69 20.3 64 17.8 86 86 S 7 11 29.88 1012 10 16.09344 0 0
7:35 am 07:35 Sunny 69 20.8 64 17.9 84 84 S 8 13 29.88 1012 10 16.09344 0 0
7:55 am 07:55 Sunny 69 20.8 64 18 84 84 S 9 15 29.88 1012 10 16.09344 0 0
8:15 am 08:15 Sunny 71 21.5 65 18.3 82 82 S 9 15 29.88 1012 10 16.09344 0 0
8:35 am 08:35 Sunny 72 22.2 65 18.3 79 79 SSW 12 19 29.88 1012 10 16.09344 0 0
8:55 am 08:55 Sunny 73 22.6 65 18.1 76 76 SSW 13 20 29.88 1012 10 16.09344 0 0
9:15 am 09:15 Sunny 74 23.1 65 18.1 74 74 SSW 9 15 29.85 1011 10 16.09344 0 0
9:35 am 09:35 Sunny 75 23.8 64 17.9 70 70 SSW 10 17 29.85 1011 10 16.09344 0 0
9:55 am 09:55 Sunny 76 24.6 64 17.5 65 65 SSW 14 22 29.85 1011 10 16.09344 0 0
10:15 am 10:15 Sunny 78 25.5 64 17.5 61 61 SSW 14 22 29.85 1011 10 16.09344 0 0
10:35 am 10:35 Sunny 78 25.5 62 16.9 59 59 SSW 15 24 29.85 1011 10 16.09344 0 0
10:55 am 10:55 Sunny 78 25.7 63 17.3 60 60 SSW 12 19 29.85 1011 10 16.09344 0 0
11:15 am 11:15 Sunny 80 26.8 64 17.6 57 57 SSW 13 20 29.83 1010 10 16.09344 0 0
11:35 am 11:35 Sunny 82 27.6 63 17.3 53 53 SSW 14 22 29.83 1010 10 16.09344 0 0
11:55 am 11:55 Sunny 82 27.9 65 18.2 56 56 S 13 20 29.83 1010 10 16.09344 0 0
12:15 pm 12:15 Sunny 83 28.2 65 18.2 55 55 S 16 26 29.8 1009 10 16.09344 0 0
12:35 pm 12:35 Sunny 81 27.3 64 17.5 55 55 S 14 22 29.8 1009 10 16.09344 0 0
12:55 pm 12:55 Sunny 79 26.3 64 17.7 59 59 S 13 20 29.8 1009 10 16.09344 0 0
1:15 pm 13:15 Sunny 77 25.2 63 17.3 62 62 S 10 17 29.83 1010 10 16.09344 0 0
1:35 pm 13:35 Sunny 78 25.8 64 17.7 61 61 S 12 19 29.83 1010 10 16.09344 0 0
1:55 pm 13:55 Sunny 80 26.6 64 17.8 59 59 SSW 16 26 29.83 1010 10 16.09344 0 0
2:15 pm 14:15 Sunny 81 27.2 64 17.6 56 56 SSW 18 30 29.83 1010 10 16.09344 0 0
2:35 pm 14:35 Sunny 81 27 64 17.5 56 56 SSW 15 24 29.83 1010 10 16.09344 0 0
2:55 pm 14:55 Sunny 81 27.2 64 18 57 57 SSW 8 13 29.83 1010 10 16.09344 0 0
3:15 pm 15:15 Sunny 83 28.3 64 17.8 53 53 SSW 13 20 29.83 1010 10 16.09344 0 0
3:35 pm 15:35 Sunny 85 29.3 65 18.3 52 52 SSW 9 15 29.83 1010 10 16.09344 0 0
3:55 pm 15:55 Sunny 84 29.1 64 18 51 51 SSW 10 17 29.8 1009 10 16.09344 0 0
4:15 pm 16:15 Sunny 85 29.5 65 18.2 51 51 SSW 8 13 29.83 1010 10 16.09344 0 0
4:35 pm 16:35 Sunny 84 29 64 17.7 51 51 SW 7 11 29.83 1010 10 16.09344 0 0
4:55 pm 16:55 Sunny 85 29.6 64 17.8 49 49 SSW 6 9 29.8 1009 10 16.09344 0 0
5:15 pm 17:15 Sunny 84 28.9 65 18.1 52 52 S 6 9 29.8 1009 10 16.09344 0 0
5:35 pm 17:35 Sunny 84 28.7 65 18.5 54 54 SSW 5 7 29.8 1009 10 16.09344 0 0
5:55 pm 17:55 Sunny 84 28.7 65 18.6 54 54 S 5 7 29.8 1009 10 16.09344 0 0
6:15 pm 18:15 Sunny 83 28.5 67 19.2 57 57 SSE 3 6 29.8 1009 10 16.09344 0 0
6:35 pm 18:35 Sunny 83 28.3 67 19.7 60 60 SSE 5 7 29.8 1009 10 16.09344 0 0
6:55 pm 18:55 Sunny 82 27.8 68 20 63 63 SSE 3 6 29.8 1009 10 16.09344 0 0
7:15 pm 19:15 Sunny 81 27.1 69 20.3 66 66 Calm 29.8 1009 10 16.09344 0 0
7:35 pm 19:35 Sunny 80 26.5 71 21.9 76 76 Calm 29.83 1010 10 16.09344 0 0
7:55 pm 19:55 Sunny 78 25.8 72 22.2 81 81 NE 3 6 29.85 1011 10 16.09344 0 0
8:15 pm 20:15 Sunny 77 25.1 71 21.7 81 81 N 3 6 29.85 1011 10 16.09344 0 0
8:35 pm 20:35 Clear 76 24.2 71 21.5 85 85 NNE 3 6 29.85 1011 10 16.09344 0 0
8:55 pm 20:55 Hazy 75 24 70 20.9 83 83 N 6 9 29.85 1011 5 8.04672 0 0
9:15 pm 21:15 Clear 75 24.1 69 20.6 81 81 N 5 7 29.85 1011 7 11.265408 0 0
9:35 pm 21:35 Mostly Cloudy 76 24.6 69 20.8 79 79 N 14 22 29.88 1012 10 16.09344 0 0
9:55 pm 21:55 Mostly Cloudy 74 23.6 69 20.5 83 83 NNE 15 24 29.88 1012 10 16.09344 0 0
10:15 pm 22:15 Mostly Cloudy 74 23.1 67 19.7 81 81 N 15 24 29.94 1014 10 16.09344 0 0
10:35 pm 22:35 Cloudy 73 22.8 65 18.5 77 77 NNE 20 31 29.97 1015 10 16.09344 0 0
10:55 pm 22:55 Cloudy 72 22.2 65 18.3 79 79 NNE 17 28 29.97 1015 10 16.09344 0 0
11:15 pm 23:15 Cloudy 71 21.6 65 18.1 81 81 NNE 14 22 29.97 1015 10 16.09344 0 0
11:35 pm 23:35 Mostly Cloudy 70 21.1 64 17.7 81 81 NNE 18 30 29.97 1015 10 16.09344 0 0
11:55 pm 23:55 Mostly Cloudy 70 20.9 64 17.5 81 81 NNE 15 24 29.97 1015 10 16.09344 0 0

Powered by AerisWeather